TRA43X EHAM-LEAL

Flight info

Callsign TRA43X
Flight time N/A
Altitude 33000
Route WOODY N872 DENOX/N0460F350 N872 CIV DCT KOVIN DCT DUCRA UM728 RESMI UN857 DISAK DCT DIRMO DCT GUERE DCT EVPOK DCT AGN DCT ANETO DCT POSSY DCT XIMPE DCT RIMES DCT SAURA DCT TATOS DCT PLANA DCT VLC
Aircraft B738/M-SDE2E3FGHIRWXY/LB1

Departure

Time N/A
Airport Amsterdam Airport Schiphol (EHAM)

Arrival

Time 2026-05-04 14:41
Airport Alicante-Elche Miguel Hernández Airport (LEAL)
Time Latitude Longitude Altitude Speed Heading
2026-05-04 12:58 48.58531 2.21088 34946 ft 413 kts 206°
2026-05-04 12:59 48.53207 2.17972 34946 ft 412 kts 195°
2026-05-04 12:59 48.47600 2.15988 34936 ft 412 kts 192°
2026-05-04 13:00 48.41988 2.14267 34941 ft 413 kts 192°
2026-05-04 13:00 48.36390 2.12541 34935 ft 412 kts 192°
2026-05-04 13:01 48.30736 2.10950 34936 ft 412 kts 187°
2026-05-04 13:01 48.24970 2.10748 34943 ft 414 kts 177°
2026-05-04 13:02 48.19230 2.11726 34941 ft 415 kts 174°
2026-05-04 13:02 48.13555 2.12995 34940 ft 414 kts 174°
2026-05-04 13:03 48.07822 2.13710 34947 ft 413 kts 178°
2026-05-04 13:03 48.02077 2.13998 34947 ft 412 kts 179°
2026-05-04 13:04 47.96354 2.14253 34956 ft 414 kts 179°
2026-05-04 13:04 47.90627 2.14538 34955 ft 414 kts 179°
2026-05-04 13:05 47.84798 2.14856 34955 ft 414 kts 179°
2026-05-04 13:05 47.79032 2.15183 34957 ft 414 kts 179°
2026-05-04 13:06 47.73291 2.15516 34949 ft 414 kts 179°
2026-05-04 13:06 47.67528 2.15850 34946 ft 414 kts 179°
2026-05-04 13:07 47.61755 2.16185 34945 ft 415 kts 179°
2026-05-04 13:07 47.55990 2.16520 34944 ft 414 kts 179°
2026-05-04 13:08 47.50253 2.16852 34944 ft 414 kts 179°
2026-05-04 13:08 47.44490 2.17184 34945 ft 413 kts 179°
2026-05-04 13:09 47.38750 2.17515 34944 ft 414 kts 179°
2026-05-04 13:09 47.32978 2.17846 34944 ft 414 kts 179°
2026-05-04 13:10 47.27238 2.18174 34944 ft 414 kts 179°
2026-05-04 13:10 47.21457 2.18505 34944 ft 415 kts 179°
2026-05-04 13:11 47.15694 2.18834 34944 ft 415 kts 179°
2026-05-04 13:11 47.09907 2.19162 34945 ft 417 kts 179°
2026-05-04 13:12 47.04144 2.18939 34947 ft 415 kts 185°
2026-05-04 13:12 46.98354 2.18207 34940 ft 415 kts 186°
2026-05-04 13:13 46.92626 2.17444 34934 ft 414 kts 186°
2026-05-04 13:13 46.87016 2.16737 34934 ft 415 kts 185°
2026-05-04 13:14 46.81355 2.16057 34927 ft 414 kts 185°
2026-05-04 13:14 46.75575 2.15380 34922 ft 414 kts 185°
2026-05-04 13:15 46.69837 2.14718 34929 ft 415 kts 185°
2026-05-04 13:15 46.64085 2.14059 34924 ft 414 kts 185°
2026-05-04 13:16 46.58314 2.13400 34924 ft 416 kts 185°
2026-05-04 13:16 46.52536 2.12743 34925 ft 415 kts 185°
2026-05-04 13:17 46.46782 2.12089 34930 ft 416 kts 186°
2026-05-04 13:17 46.41014 2.11434 34929 ft 416 kts 185°
2026-05-04 13:18 46.35215 2.10777 34925 ft 416 kts 186°
2026-05-04 13:18 46.29450 2.10125 34932 ft 416 kts 186°
2026-05-04 13:19 46.23680 2.09430 34926 ft 416 kts 188°
2026-05-04 13:19 46.18121 2.07423 34927 ft 414 kts 204°
2026-05-04 13:20 46.13097 2.03250 34928 ft 415 kts 213°
2026-05-04 13:20 46.08360 1.98482 34925 ft 416 kts 214°
2026-05-04 13:21 46.03687 1.93662 34909 ft 416 kts 214°
2026-05-04 13:21 45.98933 1.88806 34907 ft 416 kts 214°
2026-05-04 13:22 45.94228 1.84053 34906 ft 414 kts 214°
2026-05-04 13:22 45.89504 1.79314 34912 ft 414 kts 214°
2026-05-04 13:23 45.84746 1.74562 34907 ft 415 kts 214°
2026-05-04 13:23 45.80015 1.69849 34916 ft 413 kts 214°
2026-05-04 13:24 45.75281 1.65144 34918 ft 415 kts 214°
2026-05-04 13:24 45.70530 1.60433 34918 ft 413 kts 214°
2026-05-04 13:25 45.63429 1.53410 34917 ft 413 kts 214°
2026-05-04 13:25 45.58724 1.48769 34917 ft 413 kts 214°
2026-05-04 13:26 45.53986 1.44105 34919 ft 412 kts 214°
2026-05-04 13:26 45.49178 1.39599 34917 ft 412 kts 210°
2026-05-04 13:27 45.43887 1.36447 34920 ft 413 kts 198°
2026-05-04 13:27 45.38334 1.34464 34925 ft 414 kts 194°
2026-05-04 13:28 45.32677 1.32710 34921 ft 412 kts 193°
2026-05-04 13:28 45.27173 1.30998 34920 ft 414 kts 194°
2026-05-04 13:29 45.21557 1.29216 34919 ft 413 kts 194°
2026-05-04 13:29 45.15921 1.27408 34918 ft 413 kts 194°
2026-05-04 13:30 45.10313 1.25603 34919 ft 413 kts 194°
2026-05-04 13:30 45.04760 1.23818 34920 ft 411 kts 194°
2026-05-04 13:31 44.99169 1.22023 34919 ft 411 kts 194°
2026-05-04 13:31 44.93567 1.20228 34915 ft 411 kts 194°
2026-05-04 13:32 44.88073 1.18472 34915 ft 410 kts 194°
2026-05-04 13:32 44.82572 1.16715 34916 ft 409 kts 194°
2026-05-04 13:33 44.77008 1.14941 34916 ft 410 kts 195°
2026-05-04 13:33 44.71446 1.13171 34905 ft 409 kts 195°
2026-05-04 13:34 44.65899 1.11410 34907 ft 409 kts 195°
2026-05-04 13:34 44.60333 1.09647 34909 ft 410 kts 195°
2026-05-04 13:35 44.51969 1.07005 34901 ft 409 kts 195°
2026-05-04 13:36 44.46427 1.05260 34898 ft 407 kts 195°
2026-05-04 13:36 44.40885 1.03518 34906 ft 406 kts 195°
2026-05-04 13:37 44.35381 1.01790 34910 ft 406 kts 195°
2026-05-04 13:37 44.29831 1.00051 34909 ft 407 kts 195°
2026-05-04 13:38 44.24322 0.98328 34900 ft 405 kts 195°
2026-05-04 13:38 44.18803 0.96605 34908 ft 407 kts 195°
2026-05-04 13:39 44.13272 0.94880 34911 ft 405 kts 195°
2026-05-04 13:39 44.08000 0.93240 34914 ft 407 kts 195°
2026-05-04 13:40 44.02550 0.91551 34894 ft 406 kts 195°
2026-05-04 13:40 43.97057 0.89850 34909 ft 406 kts 195°
2026-05-04 13:41 43.91523 0.88137 34913 ft 407 kts 195°
2026-05-04 13:41 43.86238 0.86541 34912 ft 404 kts 194°
2026-05-04 13:42 43.77966 0.84338 34907 ft 404 kts 194°
2026-05-04 13:42 43.72440 0.82892 34918 ft 404 kts 194°
2026-05-04 13:43 43.66888 0.81428 34896 ft 401 kts 194°
2026-05-04 13:43 43.61386 0.79969 34918 ft 404 kts 194°
2026-05-04 13:44 43.55871 0.78506 34915 ft 402 kts 194°
2026-05-04 13:44 43.50335 0.77038 34898 ft 402 kts 194°
2026-05-04 13:45 43.44846 0.75585 34922 ft 403 kts 194°
2026-05-04 13:45 43.39327 0.74127 34917 ft 401 kts 194°
2026-05-04 13:46 43.33850 0.72681 34923 ft 402 kts 194°
2026-05-04 13:46 43.28316 0.71223 34916 ft 402 kts 194°
2026-05-04 13:47 43.22824 0.69780 34942 ft 401 kts 195°
2026-05-04 13:47 43.17380 0.68352 34910 ft 399 kts 194°
2026-05-04 13:48 43.11863 0.66909 34943 ft 402 kts 195°
2026-05-04 13:48 43.06399 0.65483 34937 ft 399 kts 194°
2026-05-04 13:49 43.00947 0.64059 34927 ft 399 kts 194°
2026-05-04 13:49 42.95499 0.62642 34923 ft 400 kts 195°
2026-05-04 13:50 42.90024 0.61217 34939 ft 400 kts 195°
2026-05-04 13:50 42.84689 0.59835 34938 ft 399 kts 195°
2026-05-04 13:51 42.79256 0.58426 34932 ft 400 kts 195°
2026-05-04 13:51 42.73786 0.57009 34934 ft 399 kts 195°
2026-05-04 13:52 42.65844 0.53713 34925 ft 395 kts 206°
2026-05-04 13:53 42.60868 0.50606 34932 ft 395 kts 208°
2026-05-04 13:53 42.55920 0.47375 34923 ft 393 kts 208°
2026-05-04 13:54 42.48505 0.42581 34924 ft 394 kts 208°
2026-05-04 13:55 42.41077 0.37833 34919 ft 392 kts 208°
2026-05-04 13:55 42.33672 0.33127 34917 ft 393 kts 207°
2026-05-04 13:56 42.28725 0.29989 34910 ft 393 kts 207°
2026-05-04 13:57 42.21288 0.25288 34908 ft 393 kts 208°
2026-05-04 13:58 42.11413 0.19062 34890 ft 391 kts 207°
2026-05-04 13:58 42.03683 0.15379 34892 ft 398 kts 196°
2026-05-04 13:59 41.98177 0.14344 34882 ft 403 kts 191°
2026-05-04 14:00 41.89949 0.13218 34872 ft 402 kts 191°
2026-05-04 14:00 41.81643 0.12036 34872 ft 401 kts 191°
2026-05-04 14:01 41.76062 0.11217 34877 ft 401 kts 192°
2026-05-04 14:02 41.67731 0.09980 34874 ft 400 kts 191°
2026-05-04 14:02 41.62155 0.09152 34886 ft 404 kts 191°
2026-05-04 14:03 41.56595 0.08326 34888 ft 404 kts 192°
2026-05-04 14:03 41.50982 0.07496 34880 ft 403 kts 192°
2026-05-04 14:04 41.42597 0.06258 34882 ft 404 kts 192°
2026-05-04 14:04 41.37017 0.05436 34877 ft 403 kts 191°
2026-05-04 14:05 41.28578 0.04194 34875 ft 406 kts 192°
2026-05-04 14:06 41.22995 0.03374 34878 ft 406 kts 192°
2026-05-04 14:06 41.17364 0.02550 34882 ft 406 kts 192°
2026-05-04 14:07 41.11698 0.01721 34890 ft 409 kts 192°
2026-05-04 14:07 41.06084 0.00902 34899 ft 408 kts 192°
2026-05-04 14:08 41.00435 0.00079 34906 ft 407 kts 192°
2026-05-04 14:08 40.94781 -0.00746 34901 ft 408 kts 192°
2026-05-04 14:09 40.86396 -0.01965 34911 ft 409 kts 192°
2026-05-04 14:10 40.77966 -0.03186 34920 ft 407 kts 192°
2026-05-04 14:10 40.72306 -0.04007 34914 ft 407 kts 192°
2026-05-04 14:11 40.66695 -0.04818 34927 ft 408 kts 192°
2026-05-04 14:11 40.58233 -0.06055 34933 ft 407 kts 193°
2026-05-04 14:12 40.52688 -0.07532 34934 ft 403 kts 200°
2026-05-04 14:13 40.44661 -0.10686 34949 ft 400 kts 202°
2026-05-04 14:13 40.39323 -0.12857 34946 ft 400 kts 202°
2026-05-04 14:14 40.34263 -0.14887 34942 ft 400 kts 202°
2026-05-04 14:14 40.26278 -0.18052 34953 ft 400 kts 202°
2026-05-04 14:15 40.15602 -0.22250 34949 ft 401 kts 202°
2026-05-04 14:16 40.07606 -0.25385 34944 ft 401 kts 202°
2026-05-04 14:17 39.99575 -0.28524 34939 ft 401 kts 202°
2026-05-04 14:18 39.91543 -0.31656 34940 ft 402 kts 202°
2026-05-04 14:19 39.80790 -0.35835 34943 ft 400 kts 202°
2026-05-04 14:19 39.78162 -0.36854 34756 ft 396 kts 202°
2026-05-04 14:19 39.75542 -0.37867 34398 ft 390 kts 202°
2026-05-04 14:19 39.72962 -0.38865 33825 ft 390 kts 202°
2026-05-04 14:20 39.70354 -0.39877 33104 ft 390 kts 202°
2026-05-04 14:20 39.67758 -0.40885 32363 ft 392 kts 202°
2026-05-04 14:20 39.65135 -0.41902 31599 ft 393 kts 202°
2026-05-04 14:21 39.59868 -0.43938 29969 ft 392 kts 202°
2026-05-04 14:21 39.57239 -0.44951 29130 ft 395 kts 202°
2026-05-04 14:21 39.54621 -0.45962 28255 ft 398 kts 202°
2026-05-04 14:21 39.51965 -0.46988 27469 ft 397 kts 202°
2026-05-04 14:22 39.49327 -0.48001 26992 ft 390 kts 202°
2026-05-04 14:22 39.46748 -0.48974 26458 ft 385 kts 201°
2026-05-04 14:22 39.44180 -0.49904 25915 ft 381 kts 201°
2026-05-04 14:22 39.41665 -0.50796 25371 ft 377 kts 201°
2026-05-04 14:23 39.36524 -0.52616 24261 ft 392 kts 200°
2026-05-04 14:23 39.33892 -0.53553 23676 ft 392 kts 200°
2026-05-04 14:23 39.31277 -0.54477 23105 ft 386 kts 200°
2026-05-04 14:24 39.28728 -0.55375 22557 ft 381 kts 200°
2026-05-04 14:24 39.26174 -0.56276 22003 ft 375 kts 200°
2026-05-04 14:24 39.23676 -0.57158 21456 ft 370 kts 201°
2026-05-04 14:24 39.21204 -0.58032 20911 ft 365 kts 200°
2026-05-04 14:25 39.18765 -0.58894 20372 ft 361 kts 201°
2026-05-04 14:25 39.13997 -0.60583 19310 ft 352 kts 201°
2026-05-04 14:25 39.11651 -0.61414 18784 ft 349 kts 201°
2026-05-04 14:26 39.09285 -0.62256 18256 ft 360 kts 201°
2026-05-04 14:26 39.06842 -0.63133 17700 ft 368 kts 200°
2026-05-04 14:26 39.04409 -0.63997 17133 ft 364 kts 200°
2026-05-04 14:26 39.01987 -0.64849 16567 ft 360 kts 200°
2026-05-04 14:27 38.99573 -0.65696 16004 ft 356 kts 200°
2026-05-04 14:27 38.97179 -0.66536 15463 ft 352 kts 199°
2026-05-04 14:27 38.94828 -0.67364 14919 ft 349 kts 199°
2026-05-04 14:27 38.92510 -0.68182 14361 ft 346 kts 199°
2026-05-04 14:28 38.90188 -0.69002 13823 ft 343 kts 199°
2026-05-04 14:28 38.87998 -0.69776 13299 ft 340 kts 199°
2026-05-04 14:28 38.85720 -0.70579 12765 ft 338 kts 199°
2026-05-04 14:28 38.83466 -0.71374 12224 ft 335 kts 199°
2026-05-04 14:29 38.78997 -0.72943 11165 ft 331 kts 199°
2026-05-04 14:29 38.74668 -0.74456 10651 ft 311 kts 199°
2026-05-04 14:30 38.72624 -0.75168 10531 ft 297 kts 198°
2026-05-04 14:30 38.70654 -0.75855 10407 ft 286 kts 199°
2026-05-04 14:30 38.66968 -0.77149 10154 ft 264 kts 199°
2026-05-04 14:31 38.65241 -0.77755 10004 ft 255 kts 199°
2026-05-04 14:31 38.61824 -0.78954 9331 ft 253 kts 199°
2026-05-04 14:32 38.58447 -0.80135 8664 ft 250 kts 199°
2026-05-04 14:32 38.56773 -0.80718 8423 ft 245 kts 199°
2026-05-04 14:32 38.55142 -0.81283 8350 ft 246 kts 199°
2026-05-04 14:32 38.53415 -0.81894 8175 ft 264 kts 199°
2026-05-04 14:33 38.51653 -0.82529 7767 ft 266 kts 199°
2026-05-04 14:33 38.49875 -0.83175 7428 ft 264 kts 199°
2026-05-04 14:33 38.48101 -0.83824 7062 ft 261 kts 199°
2026-05-04 14:33 38.46406 -0.84443 6776 ft 250 kts 199°
2026-05-04 14:34 38.44750 -0.85049 6472 ft 240 kts 199°
2026-05-04 14:34 38.43218 -0.85608 6365 ft 221 kts 199°
2026-05-04 14:34 38.41782 -0.86133 6260 ft 208 kts 199°
2026-05-04 14:34 38.40429 -0.86633 6084 ft 197 kts 200°
2026-05-04 14:35 38.39130 -0.87117 5839 ft 192 kts 199°
2026-05-04 14:35 38.37867 -0.87586 5616 ft 188 kts 199°
2026-05-04 14:35 38.36633 -0.88040 5473 ft 181 kts 199°
2026-05-04 14:35 38.35418 -0.88482 5331 ft 182 kts 198°
2026-05-04 14:36 38.34148 -0.88697 5128 ft 193 kts 176°
2026-05-04 14:36 38.32929 -0.87918 4932 ft 204 kts 131°
2026-05-04 14:36 38.32363 -0.86264 4651 ft 208 kts 102°
2026-05-04 14:36 38.32175 -0.84460 4343 ft 208 kts 99°
2026-05-04 14:37 38.31960 -0.82658 4063 ft 206 kts 102°
2026-05-04 14:37 38.31704 -0.80861 3786 ft 204 kts 103°
2026-05-04 14:37 38.31456 -0.79100 3515 ft 200 kts 102°
2026-05-04 14:37 38.31227 -0.77413 3231 ft 191 kts 103°
2026-05-04 14:38 38.31002 -0.75780 2974 ft 186 kts 103°
2026-05-04 14:38 38.30775 -0.74150 2725 ft 187 kts 103°
2026-05-04 14:38 38.30550 -0.72527 2474 ft 186 kts 104°
2026-05-04 14:38 38.30325 -0.70907 2228 ft 186 kts 103°
2026-05-04 14:39 38.30098 -0.69287 1959 ft 184 kts 103°
2026-05-04 14:39 38.29883 -0.67716 1726 ft 182 kts 104°
2026-05-04 14:39 38.29665 -0.66148 1536 ft 168 kts 104°
2026-05-04 14:40 38.29274 -0.63336 1109 ft 156 kts 104°
2026-05-04 14:40 38.29085 -0.61989 890 ft 154 kts 103°
2026-05-04 14:40 38.28898 -0.60601 689 ft 164 kts 103°
2026-05-04 14:40 38.28698 -0.59180 495 ft 161 kts 103°
2026-05-04 14:41 38.28499 -0.57809 248 ft 156 kts 104°
2026-05-04 14:41 38.28307 -0.56458 118 ft 143 kts 98°
2026-05-04 14:41 38.28123 -0.55051 81 ft 34 kts 84°
2026-05-04 14:42 38.28181 -0.54767 73 ft 5 kts 69°
2026-05-04 14:42 38.28200 -0.54722 72 ft 5 kts 42°
2026-05-04 14:42 38.28242 -0.54738 73 ft 7 kts 296°
2026-05-04 14:43 38.28255 -0.54819 76 ft 14 kts 280°
2026-05-04 14:43 38.28279 -0.54988 82 ft 21 kts 282°
2026-05-04 14:43 38.28301 -0.55145 88 ft 13 kts 281°
2026-05-04 14:43 38.28331 -0.55210 90 ft 6 kts 333°
2026-05-04 14:44 38.28385 -0.55166 89 ft 13 kts 41°
2026-05-04 14:44 38.28440 -0.55205 90 ft 10 kts 279°